�N����,����,�~����,�C��,���x,�C��,����,���ϕ���,�ő�u�ԕ���,�ő厞����,���˗�,�I�_���x,�n�����x,�ő啗���N��,DTYPE
"19/04/16","00:10",0.0,5.2,88.4,1013.5,300.9,1.8,2.4,311.6,0.00,3.5,11.1,"00:01:28",1
"19/04/16","00:20",0.0,5.0,89.1,1013.8,295.1,2.0,2.7,318.5,0.00,3.4,11.2,"00:16:24",1
"19/04/16","00:30",0.0,4.9,89.8,1013.8,303.9,2.2,2.8,320.0,0.00,3.4,10.9,"00:28:32",1
"19/04/16","00:40",0.0,5.0,90.1,1013.8,302.6,2.1,2.8,309.5,0.00,3.6,11.0,"00:30:16",1
"19/04/16","00:50",0.0,4.8,90.7,1013.5,289.7,1.7,2.1,304.8,0.00,3.5,10.7,"00:42:48",1
"19/04/16","01:00",0.0,4.7,90.9,1013.8,284.7,1.8,2.4,302.6,0.00,3.4,10.7,"00:59:52",1
"19/04/16","01:10",0.0,4.9,91.8,1013.3,297.5,2.3,3.4,313.8,0.00,3.7,10.8,"01:07:04",1
"19/04/16","01:20",0.0,4.9,91.5,1013.3,291.2,2.2,2.8,294.0,0.00,3.7,10.8,"01:11:44",1
"19/04/16","01:30",0.0,4.8,91.4,1012.8,289.4,2.1,3.2,316.6,0.00,3.6,10.6,"01:29:36",1
"19/04/16","01:40",0.0,4.7,91.6,1013.0,287.0,2.1,2.7,296.6,0.00,3.5,10.6,"01:30:08",1
"19/04/16","01:50",0.0,4.7,92.3,1013.0,310.0,2.2,4.0,321.4,0.00,3.6,10.6,"01:43:36",1
"19/04/16","02:00",0.0,4.6,92.1,1013.3,291.5,1.5,3.1,321.0,0.00,3.5,10.5,"01:50:16",1
"19/04/16","02:10",0.0,4.6,92.3,1013.0,293.6,1.5,2.1,318.6,0.00,3.5,10.5,"02:08:34",1
"19/04/16","02:20",0.0,4.4,92.5,1013.0,310.7,2.0,2.5,315.1,0.00,3.3,10.5,"02:11:04",1
"19/04/16","02:30",0.0,4.2,92.8,1013.0,290.2,1.8,3.2,308.3,0.00,3.2,10.3,"02:20:02",1
"19/04/16","02:40",0.0,4.6,93.1,1013.3,311.2,2.5,3.6,316.7,0.00,3.6,10.2,"02:30:24",1
"19/04/16","02:50",0.0,4.9,92.8,1013.0,311.1,2.8,4.1,327.3,0.00,3.9,10.3,"02:43:36",1
"19/04/16","03:00",0.0,4.9,92.7,1013.3,315.3,2.8,4.5,330.2,0.00,3.9,10.1,"02:59:28",1
"19/04/16","03:10",0.0,5.1,92.3,1013.0,324.5,3.5,5.0,331.0,0.00,4.0,10.4,"03:07:44",1
"19/04/16","03:20",0.0,5.0,92.4,1013.3,323.7,3.7,5.6,330.5,0.00,3.9,10.3,"03:14:56",1
"19/04/16","03:30",0.0,5.0,92.0,1013.8,317.1,3.0,4.8,333.6,0.00,3.9,10.3,"03:20:24",1
"19/04/16","03:40",0.0,4.6,91.8,1013.5,283.1,2.0,2.9,312.6,0.00,3.4,10.1,"03:39:12",1
"19/04/16","03:50",0.0,4.6,92.2,1013.5,304.2,2.1,3.4,316.5,0.00,3.5,10.2,"03:43:44",1
"19/04/16","04:00",0.0,4.4,92.3,1014.0,299.1,1.5,2.0,319.2,0.00,3.3,10.2,"03:55:04",1
"19/04/16","04:10",0.0,4.1,91.8,1013.5,275.7,0.8,1.4,291.0,0.00,2.9,9.9,"04:08:50",1
"19/04/16","04:20",0.0,3.9,92.5,1013.8,304.4,1.5,2.5,320.2,0.00,2.8,10.0,"04:11:36",1
"19/04/16","04:30",0.0,3.8,92.1,1013.8,267.2,1.0,1.7,294.9,0.00,2.7,9.9,"04:25:52",1
"19/04/16","04:40",0.0,3.6,93.2,1013.8,285.9,1.6,1.9,296.2,0.00,2.6,10.0,"04:38:24",1
"19/04/16","04:50",0.0,3.5,93.4,1013.5,292.4,1.7,2.2,318.3,0.00,2.6,9.9,"04:42:00",1
"19/04/16","05:00",0.0,3.5,93.7,1013.3,291.5,1.7,2.5,309.5,0.00,2.6,9.7,"04:57:28",1
"19/04/16","05:10",0.0,3.5,93.7,1013.5,317.1,2.1,3.4,328.3,0.00,2.6,9.7,"05:04:24",1
"19/04/16","05:20",0.0,3.1,94.0,1013.3,305.2,1.8,2.7,314.5,0.00,2.3,9.7,"05:11:28",1
"19/04/16","05:30",0.0,3.0,95.1,1013.8,292.9,1.7,2.4,310.3,0.00,2.3,9.4,"05:22:24",1
"19/04/16","05:40",0.0,3.0,94.2,1013.5,298.9,2.1,3.4,310.7,0.00,2.2,9.5,"05:30:48",1
"19/04/16","05:50",0.0,3.1,94.9,1013.8,292.4,2.0,2.5,317.4,0.00,2.4,9.6,"05:40:02",1
"19/04/16","06:00",0.0,2.7,95.0,1013.5,315.1,2.5,4.2,325.3,0.00,2.0,9.7,"05:54:16",1
"19/04/16","06:10",0.0,3.1,95.1,1014.0,301.9,2.2,3.7,304.8,0.00,2.4,9.5,"06:04:08",1
"19/04/16","06:20",0.0,3.4,95.4,1014.0,311.3,2.0,2.7,310.1,0.00,2.8,9.5,"06:11:28",1
"19/04/16","06:30",0.0,3.7,95.2,1014.2,296.1,1.5,1.9,311.8,0.00,3.0,9.4,"06:23:36",1
"19/04/16","06:40",0.0,4.2,95.1,1014.0,287.2,2.0,2.2,290.4,0.00,3.5,9.4,"06:33:44",1
"19/04/16","06:50",0.0,4.4,94.5,1014.5,324.2,2.0,2.6,323.5,0.01,3.6,9.2,"06:45:44",1
"19/04/16","07:00",0.0,4.6,95.5,1014.9,319.9,2.5,3.1,321.7,0.02,4.0,9.5,"06:55:28",1
"19/04/16","07:10",0.0,5.8,94.9,1014.9,313.1,1.5,2.5,316.6,0.04,5.1,9.3,"07:03:28",1
"19/04/16","07:20",0.0,6.3,93.0,1015.2,318.0,1.3,2.1,322.3,0.06,5.3,9.3,"07:12:40",1
"19/04/16","07:30",0.0,7.2,90.4,1015.2,316.9,0.7,2.1,330.0,0.09,5.8,9.4,"07:29:44",1
"19/04/16","07:40",0.0,7.7,89.1,1015.6,331.9,1.0,2.0,317.3,0.12,6.1,9.7,"07:33:12",1
"19/04/16","07:50",0.0,8.6,85.3,1015.9,323.6,0.7,1.2,317.6,0.14,6.3,9.6,"07:43:20",1
"19/04/16","08:00",0.0,9.0,80.8,1016.1,288.7,1.0,2.1,311.2,0.17,5.9,9.6,"07:52:56",1
"19/04/16","08:10",0.0,9.2,79.1,1016.6,112.3,0.5,1.0,115.0,0.20,5.8,9.7,"08:06:40",1
"19/04/16","08:20",0.0,9.9,77.5,1016.8,183.2,0.5,1.3,303.6,0.23,6.2,9.5,"08:16:56",1
"19/04/16","08:30",0.0,10.2,76.0,1016.8,203.1,0.7,1.6,250.0,0.26,6.2,9.8,"08:20:32",1
"19/04/16","08:40",0.0,10.9,73.2,1016.6,247.3,0.7,1.4,251.2,0.29,6.3,9.7,"08:31:52",1
"19/04/16","08:50",0.0,10.9,70.8,1016.6,207.1,0.7,1.7,124.9,0.31,5.9,10.0,"08:46:40",1
"19/04/16","09:00",0.0,12.0,70.7,1016.4,72.4,0.8,1.7,56.2,0.34,6.9,10.2,"08:59:04",1
"19/04/16","09:10",0.0,11.7,69.5,1016.4,203.6,1.0,2.0,159.0,0.37,6.4,10.2,"09:00:24",1
"19/04/16","09:20",0.0,12.7,67.5,1016.6,199.4,1.0,2.2,237.3,0.39,6.9,10.3,"09:16:00",1
"19/04/16","09:30",0.0,12.3,63.8,1016.4,188.1,1.2,2.2,203.7,0.42,5.7,10.6,"09:25:20",1
"19/04/16","09:40",0.0,12.6,60.3,1016.1,127.6,1.2,2.6,132.4,0.44,5.2,10.7,"09:38:08",1
"19/04/16","09:50",0.0,13.1,57.3,1016.1,158.6,1.3,2.5,120.9,0.46,4.9,10.8,"09:49:44",1
"19/04/16","10:00",0.0,13.6,53.9,1016.4,162.8,1.5,2.7,115.9,0.48,4.5,11.1,"09:58:48",1
"19/04/16","10:10",0.0,14.1,56.3,1015.9,178.8,1.5,3.1,147.0,0.50,5.6,11.5,"10:05:20",1
"19/04/16","10:20",0.0,14.2,53.3,1015.9,159.3,1.0,2.8,198.9,0.52,4.9,11.7,"10:10:02",1
"19/04/16","10:30",0.0,14.6,51.4,1015.9,148.0,1.6,3.2,134.5,0.53,4.7,11.8,"10:27:20",1
"19/04/16","10:40",0.0,14.5,47.7,1015.9,79.6,1.2,2.2,166.0,0.55,3.6,12.1,"10:33:36",1
"19/04/16","10:50",0.0,14.9,48.0,1015.9,115.2,2.0,3.5,145.3,0.56,4.0,12.3,"10:49:12",1
"19/04/16","11:00",0.0,15.2,46.3,1015.4,163.5,1.7,4.1,197.4,0.57,3.8,12.7,"10:55:44",1
"19/04/16","11:10",0.0,15.7,45.9,1015.2,109.6,2.0,3.5,112.1,0.58,4.1,12.9,"11:02:24",1
"19/04/16","11:20",0.0,16.0,42.0,1015.2,104.8,1.3,2.8,121.1,0.59,3.1,13.1,"11:12:24",1
"19/04/16","11:30",0.0,16.9,42.7,1014.9,145.8,1.5,3.3,226.3,0.60,4.2,13.2,"11:29:44",1
"19/04/16","11:40",0.0,16.8,41.3,1014.7,211.6,1.5,3.9,114.6,0.61,3.6,13.5,"11:36:32",1
"19/04/16","11:50",0.0,17.0,41.8,1014.7,163.0,2.1,4.0,149.5,0.62,4.0,13.8,"11:46:32",1
"19/04/16","12:00",0.0,17.6,40.4,1014.5,143.0,1.5,3.3,104.0,0.62,4.0,13.7,"11:59:12",1
"19/04/16","12:10",0.0,18.0,41.6,1014.2,119.9,2.1,4.9,118.3,0.62,4.8,14.0,"12:04:24",1
"19/04/16","12:20",0.0,17.8,39.3,1013.8,175.1,2.2,4.4,193.2,0.62,3.8,14.1,"12:14:32",1
"19/04/16","12:30",0.0,17.9,36.0,1013.5,129.9,1.6,3.9,113.8,0.63,2.7,14.3,"12:22:40",1
"19/04/16","12:40",0.0,18.7,36.2,1013.5,170.0,1.6,3.4,154.6,0.63,3.5,14.4,"12:31:12",1
"19/04/16","12:50",0.0,18.8,34.2,1013.3,18.3,1.5,4.3,126.6,0.63,2.7,14.7,"12:47:44",1
"19/04/16","13:00",0.0,19.4,37.0,1012.8,174.0,1.2,2.7,199.4,0.62,4.4,14.8,"12:55:04",1
"19/04/16","13:10",0.0,19.2,32.1,1012.6,113.3,1.3,3.1,121.2,0.62,2.2,15.2,"13:07:44",1
"19/04/16","13:20",0.0,19.9,31.2,1012.1,196.2,1.2,2.5,170.3,0.62,2.4,15.1,"13:12:08",1
"19/04/16","13:30",0.0,20.1,33.1,1011.9,206.4,1.6,3.7,128.1,0.61,3.4,15.5,"13:27:12",1
"19/04/16","13:40",0.0,20.5,31.7,1012.1,225.9,1.6,3.3,188.1,0.61,3.2,15.7,"13:38:48",1
"19/04/16","13:50",0.0,20.6,35.8,1011.9,189.6,2.0,4.3,149.7,0.60,5.0,15.7,"13:47:28",1
"19/04/16","14:00",0.0,20.6,30.9,1011.6,166.4,1.3,4.0,105.6,0.58,2.9,15.9,"13:56:16",1
"19/04/16","14:10",0.0,20.6,26.4,1011.4,175.5,1.6,4.9,106.2,0.54,0.7,16.2,"14:08:48",1
"19/04/16","14:20",0.0,21.0,28.3,1011.2,228.4,1.3,3.4,216.8,0.55,2.0,16.1,"14:18:08",1
"19/04/16","14:30",0.0,20.9,30.1,1011.2,199.2,2.1,4.3,229.4,0.41,2.8,16.2,"14:20:56",1
"19/04/16","14:40",0.0,20.8,25.7,1010.7,151.7,1.7,3.6,204.2,0.42,0.5,16.2,"14:39:36",1
"19/04/16","14:50",0.0,21.5,25.2,1010.7,209.7,1.1,2.5,182.1,0.47,0.8,16.4,"14:45:44",1
"19/04/16","15:00",0.0,21.7,24.0,1010.7,156.9,1.5,3.9,203.1,0.44,0.3,16.3,"14:54:08",1
"19/04/16","15:10",0.0,20.8,24.1,1010.0,237.1,1.6,3.1,180.5,0.34,-0.4,16.3,"15:00:02",1
"19/04/16","15:20",0.0,21.7,23.9,1010.2,198.5,1.5,3.1,207.9,0.42,0.2,16.5,"15:11:36",1
"19/04/16","15:30",0.0,21.4,22.7,1010.4,215.9,1.6,4.8,228.7,0.36,-0.7,16.4,"15:28:00",1
"19/04/16","15:40",0.0,21.3,19.5,1010.2,184.3,1.8,3.1,163.6,0.39,-2.9,16.6,"15:34:24",1
"19/04/16","15:50",0.0,22.0,22.0,1010.0,155.0,0.8,2.2,199.2,0.38,-0.6,16.6,"15:42:56",1
"19/04/16","16:00",0.0,21.3,19.4,1010.0,193.0,1.7,3.5,225.3,0.29,-2.9,16.5,"15:52:00",1
"19/04/16","16:10",0.0,21.7,19.7,1010.2,213.2,1.2,3.1,219.2,0.29,-2.4,16.6,"16:07:36",1
"19/04/16","16:20",0.0,21.6,19.1,1010.2,221.3,0.8,2.6,230.4,0.23,-2.9,16.6,"16:10:48",1
"19/04/16","16:30",0.0,21.5,19.5,1009.7,186.9,1.0,1.9,235.8,0.21,-2.7,16.6,"16:20:24",1
"19/04/16","16:40",0.0,21.0,18.8,1010.2,220.9,1.3,3.2,226.9,0.15,-3.6,16.6,"16:34:00",1
"19/04/16","16:50",0.0,21.1,18.5,1010.0,245.9,1.3,2.0,231.7,0.13,-3.7,16.4,"16:48:24",1
"19/04/16","17:00",0.0,21.3,20.4,1010.2,246.5,1.2,2.6,256.0,0.12,-2.2,16.4,"16:56:08",1
"19/04/16","17:10",0.0,21.4,19.4,1010.2,239.0,1.1,2.4,224.4,0.12,-2.8,16.3,"17:09:28",1
"19/04/16","17:20",0.0,21.5,17.1,1010.4,239.1,1.3,2.7,237.8,0.14,-4.4,16.2,"17:19:04",1
"19/04/16","17:30",0.0,22.0,16.8,1010.0,258.5,0.7,1.9,227.7,0.13,-4.3,16.2,"17:21:12",1
"19/04/16","17:40",0.0,22.2,18.6,1010.0,207.3,0.5,1.4,237.7,0.10,-2.7,16.3,"17:32:00",1
"19/04/16","17:50",0.0,21.8,18.8,1010.2,232.9,1.0,2.5,210.3,0.07,-2.9,16.0,"17:41:04",1
"19/04/16","18:00",0.0,21.5,22.2,1010.4,245.2,0.8,1.6,221.2,0.04,-0.9,15.9,"17:50:24",1
"19/04/16","18:10",0.0,20.6,27.3,1010.2,311.2,1.7,2.4,321.5,0.02,1.2,15.9,"18:03:12",1
"19/04/16","18:20",0.0,19.2,31.1,1010.4,283.7,1.1,1.8,278.7,0.01,1.8,15.8,"18:14:32",1
"19/04/16","18:30",0.0,17.8,36.7,1010.4,298.6,1.1,1.7,305.8,0.00,2.9,15.6,"18:21:20",1
"19/04/16","18:40",0.0,16.7,39.1,1010.9,285.5,0.8,1.2,281.2,0.00,2.8,15.5,"18:31:04",1
"19/04/16","18:50",0.0,16.1,40.1,1010.9,290.2,1.0,1.3,312.2,0.00,2.6,15.4,"18:47:04",1
"19/04/16","19:00",0.0,15.5,41.1,1010.9,286.7,1.1,1.7,286.9,0.00,2.4,15.4,"18:58:00",1
"19/04/16","19:10",0.0,15.0,44.3,1011.4,303.7,1.2,2.0,348.5,0.00,3.0,15.0,"19:08:32",1
"19/04/16","19:20",0.0,14.3,46.8,1011.6,303.7,1.5,1.9,336.6,0.00,3.1,15.1,"19:11:44",1
"19/04/16","19:30",0.0,13.9,46.1,1011.6,285.6,1.2,1.8,297.0,0.00,2.6,14.9,"19:28:16",1
"19/04/16","19:40",0.0,13.5,47.3,1011.6,295.8,1.3,1.8,312.7,0.00,2.5,14.9,"19:33:52",1
"19/04/16","19:50",0.0,13.3,47.9,1012.6,283.7,1.6,2.4,260.8,0.00,2.5,14.5,"19:48:32",1
"19/04/16","20:00",0.0,13.5,46.9,1012.6,323.0,1.7,2.6,339.4,0.00,2.4,14.7,"19:58:30",1
"19/04/16","20:10",0.0,12.6,53.9,1012.6,317.1,1.8,3.2,333.7,0.00,3.6,14.7,"20:05:18",1
"19/04/16","20:20",0.0,12.7,51.9,1012.8,319.9,1.6,3.4,335.2,0.00,3.1,14.2,"20:10:08",1
"19/04/16","20:30",0.0,12.2,54.5,1013.0,323.2,1.6,2.1,320.5,0.00,3.3,14.2,"20:20:26",1
"19/04/16","20:40",0.0,11.9,56.5,1013.0,312.3,1.5,1.9,316.7,0.00,3.6,14.0,"20:30:22",1
"19/04/16","20:50",0.0,11.8,55.7,1012.8,286.1,1.3,1.8,287.4,0.00,3.3,13.9,"20:48:08",1
"19/04/16","21:00",0.0,11.8,55.8,1013.0,306.8,1.6,2.2,324.0,0.00,3.3,13.9,"20:56:26",1
"19/04/16","21:10",0.0,11.8,57.3,1012.8,319.5,1.3,2.0,310.9,0.00,3.7,13.7,"21:03:10",1
"19/04/16","21:20",0.0,11.2,59.8,1013.3,318.1,1.3,1.8,347.0,0.00,3.7,13.6,"21:10:10",1
"19/04/16","21:30",0.0,11.0,59.1,1013.0,313.5,1.7,2.2,319.3,0.00,3.4,13.4,"21:28:16",1
"19/04/16","21:40",0.0,10.8,61.0,1013.0,313.4,1.7,2.5,310.7,0.00,3.6,13.3,"21:33:00",1
"19/04/16","21:50",0.0,10.7,61.4,1012.8,314.5,1.6,2.2,317.1,0.00,3.6,13.1,"21:42:18",1
"19/04/16","22:00",0.0,10.8,60.9,1013.0,299.6,1.5,2.2,305.8,0.00,3.6,13.2,"21:58:18",1
"19/04/16","22:10",0.0,10.8,61.9,1013.5,316.7,1.6,2.1,333.4,0.00,3.8,13.3,"22:07:50",1
"19/04/16","22:20",0.0,10.7,62.7,1013.5,335.1,1.5,1.9,333.7,0.00,3.9,13.2,"22:12:48",1
"19/04/16","22:30",0.0,10.2,64.9,1013.3,305.9,0.8,1.6,338.7,0.00,3.9,13.1,"22:20:08",1
"19/04/16","22:40",0.0,10.0,66.3,1013.3,323.1,1.6,2.2,330.2,0.00,4.1,12.9,"22:38:50",1
"19/04/16","22:50",0.0,10.1,66.7,1013.3,302.4,1.5,2.2,317.5,0.00,4.2,12.9,"22:40:40",1
"19/04/16","23:00",0.0,10.3,64.9,1013.5,307.4,1.7,2.5,325.1,0.00,4.0,12.7,"22:57:00",1
"19/04/16","23:10",0.0,10.3,64.3,1013.8,321.3,1.7,2.2,321.1,0.00,3.9,12.8,"23:03:22",1
"19/04/16","23:20",0.0,10.2,64.3,1013.3,301.2,1.3,2.0,324.0,0.00,3.8,12.6,"23:11:28",1
"19/04/16","23:30",0.0,10.0,65.1,1013.5,320.0,1.7,2.2,333.8,0.00,3.8,12.5,"23:24:48",1
"19/04/16","23:40",0.0,9.9,66.4,1013.3,305.1,2.0,2.9,321.7,0.00,4.0,12.5,"23:36:48",1
"19/04/16","23:50",0.0,10.0,65.2,1013.0,299.0,1.6,2.1,309.2,0.00,3.8,12.5,"23:47:36",1
"19/04/16","24:00",0.0,9.8,65.0,1013.0,303.0,1.7,2.4,319.4,0.00,3.6,12.3,"23:58:56",1
